Location: Moscow
(55.7500°N, 37.5830°E)
Time: 14:44:36
(UTC+03:00)

Vanguard 3 - Visible Passes

Search period start: 05 March 2024 00:00
Search period end: 15 March 2024 00:00
Orbit: 508 x 3239 km, 33.4° (Epoch: 04 March)

Date Brightness Start Highest point End Pass type
(mag) Time Alt. Az. Time Alt. Az. Time Alt. Az.
05 Mar 10.6 19:37:44 10° SW 19:51:57 33° SSE 20:04:29 17° ESE visible
05 Mar 10.5 21:49:29 10° WSW 22:04:56 33° SSW 22:08:46 31° S visible
06 Mar 11.0 00:04:33 10° WSW 00:13:02 20° SW 00:13:02 20° SW visible
06 Mar 10.6 20:31:24 10° SW 20:46:16 34° S 20:55:44 23° SE visible
06 Mar 10.6 22:44:31 10° WSW 22:59:04 28° SSW 23:00:01 28° SSW visible
07 Mar 11.3 01:03:02 10° WSW 01:04:16 11° WSW 01:04:16 11° WSW visible
07 Mar 10.7 19:14:14 10° SW 19:27:41 33° SSE 19:42:41 12° ESE visible
07 Mar 10.6 21:25:44 10° WSW 21:40:36 32° SSW 21:46:57 27° SSE visible
07 Mar 10.9 23:40:35 10° WSW 23:51:14 21° SW 23:51:14 21° SW visible
08 Mar 10.6 20:07:53 10° WSW 20:21:58 34° S 20:33:55 18° SE visible
08 Mar 10.7 22:20:44 10° WSW 22:34:45 27° SSW 22:38:11 26° S visible
09 Mar 11.3 00:39:29 10° WSW 00:42:28 12° WSW 00:42:28 12° WSW visible
09 Mar 10.7 18:50:55 10° SW 19:03:29 32° S 19:19:08 10° ESE visible
09 Mar 10.7 21:02:10 10° WSW 21:16:16 31° SSW 21:25:08 22° SSE visible
09 Mar 10.9 23:16:52 10° WSW 23:28:32 20° SW 23:29:25 20° SSW visible
10 Mar 10.7 19:44:34 10° WSW 19:57:43 33° S 20:12:07 13° SE visible
10 Mar 10.8 21:57:10 10° WSW 22:10:25 26° SSW 22:16:23 22° S visible
11 Mar 11.3 00:16:28 10° WSW 00:20:39 12° SW 00:20:39 12° SW visible
11 Mar 10.7 20:38:49 10° WSW 20:52:00 30° SSW 21:03:23 17° SSE visible
11 Mar 11.0 22:53:24 10° WSW 23:04:15 19° SW 23:07:39 18° SSW visible
12 Mar 10.7 19:21:25 10° WSW 19:33:34 31° S 19:49:00 10° SE visible
12 Mar 10.9 21:33:48 10° WSW 21:46:08 25° SSW 21:54:41 18° S visible
12 Mar 11.3 23:54:38 10° SW 23:57:40 11° SW 23:58:57 10° SW visible
13 Mar 10.8 20:15:39 10° WSW 20:27:48 28° SSW 20:41:44 11° SSE visible
13 Mar 11.1 22:30:15 10° WSW 22:39:59 17° SW 22:46:01 15° SSW visible
14 Mar 10.7 18:58:26 10° SW 19:09:31 30° S 19:24:12 10° SE visible
14 Mar 11.0 21:10:42 10° WSW 21:21:56 23° SSW 21:33:07 13° SSE visible
